| time (UTC) | temp C | wind direction | speed KPH | gust KPH | rain 1hr cm | rain 24hr cm | rain mn cm | humidity % | barometer mb |
| 20260903011501 | 26 | 195 | 0.0 | 1.6 | 0.00 | 0.00 | 0.00 | 89 | 1015.4 |
| 20260903010956 | 26 | 192 | 1.6 | 1.6 | 0.00 | 0.00 | 0.00 | 89 | 1015.3 |
| 20260903010451 | 26 | 180 | 0.0 | 3.2 | 0.00 | 0.00 | 0.00 | 88 | 1015.1 |
| 20260903005949 | 26 | 173 | 0.0 | 3.2 | 0.00 | 0.00 | 0.00 | 88 | 1015.1 |
| 20260903005444 | 27 | 195 | 1.6 | 3.2 | 0.00 | 0.00 | 0.00 | 88 | 1015.2 |
| 20260903004941 | 27 | 166 | 1.6 | 3.2 | 0.00 | 0.00 | 0.00 | 87 | 1015.0 |
| 20260903004435 | 27 | 180 | 0.0 | 1.6 | 0.00 | 0.00 | 0.00 | 86 | 1015.1 |
| 20260903003931 | 27 | 174 | 1.6 | 1.6 | 0.00 | 0.00 | 0.00 | 86 | 1015.1 |
| 20260903003431 | 27 | 180 | 0.0 | 1.6 | 0.00 | 0.00 | 0.00 | 85 | 1015.1 |
| 20260903002926 | 27 | 157 | 0.0 | 1.6 | 0.00 | 0.00 | 0.00 | 85 | 1015.1 |
| 20260903002421 | 28 | 172 | 0.0 | 1.6 | 0.00 | 0.00 | 0.00 | 84 | 1015.0 |
| 20260903001920 | 28 | 157 | 1.6 | 1.6 | 0.00 | 0.00 | 0.00 | 84 | 1015.0 |
| 20260903001415 | 28 | 157 | 0.0 | 1.6 | 0.00 | 0.00 | 0.00 | 82 | 1015.0 |
| 20260903000915 | 29 | 180 | 0.0 | 0.0 | 0.00 | 0.00 | 0.00 | 80 | 1014.9 |
| 20260903000410 | 29 | 180 | 0.0 | 0.0 | 0.00 | 0.00 | 0.00 | 80 | 1015.0 |
| 20260902235908 | 30 | 157 | 0.0 | 0.0 | 0.00 | 0.00 | 0.00 | 78 | 1014.9 |
| 20260902235404 | 30 | 157 | 0.0 | 1.6 | 0.00 | 0.00 | 0.00 | 76 | 1014.8 |
| 20260902234903 | 31 | 160 | 0.0 | 0.0 | 0.00 | 0.00 | 0.00 | 72 | 1014.9 |
| 20260902234358 | 31 | 99 | 0.0 | 0.0 | 0.00 | 0.00 | 0.00 | 71 | 1014.8 |
| 20260902233856 | 32 | 151 | 0.0 | 1.6 | 0.00 | 0.00 | 0.00 | 68 | 1014.7 |
| 20260902233351 | 32 | 270 | 0.0 | 1.6 | 0.00 | 0.00 | 0.00 | 66 | 1014.9 |
| 20260902232850 | 32 | 165 | 0.0 | 3.2 | 0.00 | 0.00 | 0.00 | 66 | 1014.9 |
| 20260902232345 | 32 | 279 | 0.0 | 4.8 | 0.00 | 0.00 | 0.00 | 65 | 1014.9 |
| 20260902231844 | 32 | 251 | 0.0 | 4.8 | 0.00 | 0.00 | 0.00 | 64 | 1014.9 |
| 20260902231339 | 32 | 264 | 0.0 | 4.8 | 0.00 | 0.00 | 0.00 | 64 | 1014.7 |
| 20260902230835 | 33 | 263 | 1.6 | 3.2 | 0.00 | 0.00 | 0.00 | 64 | 1015.0 |
| 20260902230334 | 33 | 187 | 1.6 | 8.0 | 0.00 | 0.00 | 0.00 | 63 | 1015.0 |
| 20260902225828 | 33 | 297 | 0.0 | 3.2 | 0.00 | 0.00 | 0.00 | 63 | 1014.9 |
| 20260902225323 | 33 | 286 | 0.0 | 4.8 | 0.00 | 0.00 | 0.00 | 64 | 1015.0 |
| 20260902224822 | 33 | 301 | 6.4 | 6.4 | 0.00 | 0.00 | 0.00 | 62 | 1015.2 |
| 20260902224317 | 33 | 150 | 0.0 | 4.8 | 0.00 | 0.00 | 0.00 | 63 | 1014.9 |
| 20260902223813 | 33 | 279 | 1.6 | 8.0 | 0.00 | 0.00 | 0.00 | 61 | 1014.9 |
| 20260902223313 | 33 | 139 | 0.0 | 11.3 | 0.00 | 0.00 | 0.00 | 61 | 1014.8 |
| 20260902222807 | 33 | 187 | 3.2 | 4.8 | 0.00 | 0.00 | 0.00 | 60 | 1014.9 |
| 20260902222301 | 34 | 198 | 3.2 | 4.8 | 0.00 | 0.00 | 0.00 | 60 | 1015.2 |
| 20260902221755 | 34 | 304 | 4.8 | 9.7 | 0.00 | 0.00 | 0.00 | 59 | 1014.9 |
| 20260902221254 | 35 | 337 | 3.2 | 8.0 | 0.00 | 0.00 | 0.00 | 58 | 1014.9 |
| 20260902220750 | 36 | 84 | 0.0 | 4.8 | 0.00 | 0.00 | 0.00 | 57 | 1015.2 |
| 20260902220249 | 36 | 308 | 6.4 | 6.4 | 0.00 | 0.00 | 0.00 | 55 | 1015.1 |
| 20260902215745 | 36 | 240 | 1.6 | 6.4 | 0.00 | 0.00 | 0.00 | 56 | 1015.3 |
| 20260902215240 | 36 | 277 | 0.0 | 4.8 | 0.00 | 0.00 | 0.00 | 55 | 1015.1 |
| 20260902214736 | 37 | 339 | 0.0 | 8.0 | 0.00 | 0.00 | 0.00 | 54 | 1015.1 |
| 20260902214234 | 36 | 187 | 1.6 | 3.2 | 0.00 | 0.00 | 0.00 | 56 | 1015.3 |
| 20260902213730 | 36 | 315 | 3.2 | 6.4 | 0.00 | 0.00 | 0.00 | 55 | 1015.1 |
| 20260902213231 | 36 | 60 | 0.0 | 8.0 | 0.00 | 0.00 | 0.00 | 55 | 1015.3 |
| 20260902212730 | 37 | 294 | 0.0 | 4.8 | 0.00 | 0.00 | 0.00 | 54 | 1015.2 |
| 20260902212227 | 36 | 259 | 4.8 | 4.8 | 0.00 | 0.00 | 0.00 | 54 | 1015.0 |
| 20260902211722 | 35 | 229 | 3.2 | 6.4 | 0.00 | 0.00 | 0.00 | 56 | 1015.0 |
| 20260902211218 | 35 | 180 | 0.0 | 8.0 | 0.00 | 0.00 | 0.00 | 57 | 1015.1 |
| 20260902210712 | 36 | 185 | 4.8 | 6.4 | 0.00 | 0.00 | 0.00 | 54 | 1015.3 |
| 20260902210208 | 35 | 270 | 0.0 | 6.4 | 0.00 | 0.00 | 0.00 | 56 | 1015.5 |
| 20260902205705 | 35 | 209 | 0.0 | 6.4 | 0.00 | 0.00 | 0.00 | 55 | 1015.4 |
| 20260902205201 | 37 | 234 | 9.7 | 9.7 | 0.00 | 0.00 | 0.00 | 52 | 1015.2 |
| 20260902204656 | 36 | 95 | 0.0 | 6.4 | 0.00 | 0.00 | 0.00 | 54 | 1015.4 |
| 20260902204150 | 36 | 274 | 0.0 | 6.4 | 0.00 | 0.00 | 0.00 | 53 | 1015.5 |
| 20260902203645 | 37 | 206 | 0.0 | 6.4 | 0.00 | 0.00 | 0.00 | 54 | 1015.4 |
| 20260902203140 | 37 | 209 | 0.0 | 9.7 | 0.00 | 0.00 | 0.00 | 52 | 1015.5 |
| 20260902202635 | 37 | 286 | 3.2 | 6.4 | 0.00 | 0.00 | 0.00 | 52 | 1015.5 |
| 20260902202132 | 37 | 266 | 4.8 | 11.3 | 0.00 | 0.00 | 0.00 | 51 | 1015.5 |
| 20260902201628 | 37 | 276 | 0.0 | 4.8 | 0.00 | 0.00 | 0.00 | 50 | 1015.5 |
| 20260902201127 | 37 | 280 | 0.0 | 12.9 | 0.00 | 0.00 | 0.00 | 54 | 1015.5 |
| 20260902200622 | 36 | 253 | 8.0 | 14.5 | 0.00 | 0.00 | 0.00 | 52 | 1015.5 |
| 20260902200118 | 37 | 225 | 3.2 | 4.8 | 0.00 | 0.00 | 0.00 | 53 | 1015.6 |
| 20260902195614 | 37 | 78 | 3.2 | 4.8 | 0.00 | 0.00 | 0.00 | 54 | 1015.6 |
| 20260902195113 | 36 | 285 | 4.8 | 6.4 | 0.00 | 0.00 | 0.00 | 53 | 1015.9 |
| 20260902194612 | 36 | 267 | 4.8 | 6.4 | 0.00 | 0.00 | 0.00 | 52 | 1015.9 |
| 20260902194108 | 36 | 337 | 1.6 | 9.7 | 0.00 | 0.00 | 0.00 | 54 | 1015.6 |
| 20260902193604 | 36 | 311 | 4.8 | 16.1 | 0.00 | 0.00 | 0.00 | 53 | 1015.9 |
| 20260902193103 | 35 | 282 | 3.2 | 6.4 | 0.00 | 0.00 | 0.00 | 56 | 1016.0 |
| 20260902192601 | 36 | 195 | 0.0 | 4.8 | 0.00 | 0.00 | 0.00 | 56 | 1016.1 |
| 20260902192101 | 36 | 261 | 1.6 | 6.4 | 0.00 | 0.00 | 0.00 | 53 | 1016.4 |
| 20260902191556 | 36 | 243 | 0.0 | 4.8 | 0.00 | 0.00 | 0.00 | 56 | 1016.4 |
| 20260902191050 | 36 | 293 | 4.8 | 6.4 | 0.00 | 0.00 | 0.00 | 57 | 1016.4 |
| 20260902190545 | 35 | 261 | 0.0 | 4.8 | 0.00 | 0.00 | 0.00 | 58 | 1016.4 |
| 20260902190041 | 34 | 339 | 3.2 | 6.4 | 0.00 | 0.00 | 0.00 | 61 | 1016.3 |
| 20260902185537 | 34 | 12 | 1.6 | 1.6 | 0.00 | 0.00 | 0.00 | 61 | 1016.4 |
| 20260902185032 | 33 | 185 | 0.0 | 4.8 | 0.00 | 0.00 | 0.00 | 62 | 1016.5 |
| 20260902184527 | 33 | 220 | 0.0 | 4.8 | 0.00 | 0.00 | 0.00 | 62 | 1016.3 |
| 20260902184022 | 34 | 221 | 3.2 | 9.7 | 0.00 | 0.00 | 0.00 | 61 | 1016.5 |
| 20260902183519 | 35 | 23 | 0.0 | 9.7 | 0.00 | 0.00 | 0.00 | 61 | 1016.4 |
| 20260902183015 | 35 | 264 | 0.0 | 8.0 | 0.00 | 0.00 | 0.00 | 58 | 1016.7 |
| 20260902182511 | 36 | 105 | 3.2 | 6.4 | 0.00 | 0.00 | 0.00 | 60 | 1016.4 |
| 20260902182006 | 36 | 328 | 3.2 | 6.4 | 0.00 | 0.00 | 0.00 | 58 | 1016.5 |
| 20260902181502 | 36 | 266 | 0.0 | 9.7 | 0.00 | 0.00 | 0.00 | 56 | 1016.5 |
| 20260902180957 | 36 | 20 | 1.6 | 6.4 | 0.00 | 0.00 | 0.00 | 57 | 1016.8 |
| 20260902180457 | 36 | 209 | 1.6 | 9.7 | 0.00 | 0.00 | 0.00 | 58 | 1017.0 |
| 20260902175952 | 35 | 285 | 4.8 | 11.3 | 0.00 | 0.00 | 0.00 | 56 | 1016.9 |
| 20260902175447 | 36 | 153 | 6.4 | 8.0 | 0.00 | 0.00 | 0.00 | 56 | 1017.0 |
| 20260902174943 | 35 | 212 | 6.4 | 6.4 | 0.00 | 0.00 | 0.00 | 57 | 1016.9 |
| 20260902174439 | 35 | 301 | 4.8 | 12.9 | 0.00 | 0.00 | 0.00 | 55 | 1017.1 |
| 20260902173935 | 35 | 235 | 3.2 | 8.0 | 0.00 | 0.00 | 0.00 | 58 | 1017.2 |
| 20260902173434 | 36 | 246 | 4.8 | 8.0 | 0.00 | 0.00 | 0.00 | 56 | 1017.0 |
| 20260902172929 | 35 | 289 | 4.8 | 9.7 | 0.00 | 0.00 | 0.00 | 57 | 1017.2 |
| 20260902172429 | 35 | 290 | 6.4 | 8.0 | 0.00 | 0.00 | 0.00 | 57 | 1017.0 |
| 20260902171924 | 35 | 187 | 3.2 | 8.0 | 0.00 | 0.00 | 0.00 | 57 | 1017.3 |
| 20260902171419 | 35 | 266 | 4.8 | 9.7 | 0.00 | 0.00 | 0.00 | 55 | 1017.4 |
| 20260902170915 | 35 | 288 | 6.4 | 9.7 | 0.00 | 0.00 | 0.00 | 58 | 1017.3 |
| 20260902170410 | 35 | 262 | 1.6 | 12.9 | 0.00 | 0.00 | 0.00 | 57 | 1017.4 |
| 20260902165906 | 35 | 299 | 8.0 | 8.0 | 0.00 | 0.00 | 0.00 | 58 | 1017.4 |
| 20260902165405 | 35 | 208 | 3.2 | 8.0 | 0.00 | 0.00 | 0.00 | 57 | 1017.3 |
| 20260902164900 | 35 | 264 | 3.2 | 4.8 | 0.00 | 0.00 | 0.00 | 61 | 1017.4 |
| 20260902164355 | 35 | 289 | 0.0 | 6.4 | 0.00 | 0.00 | 0.00 | 63 | 1017.4 |
| 20260902163854 | 34 | 120 | 0.0 | 11.3 | 0.00 | 0.00 | 0.00 | 64 | 1017.2 |
| 20260902163349 | 34 | 51 | 3.2 | 8.0 | 0.00 | 0.00 | 0.00 | 64 | 1017.5 |
| 20260902162847 | 35 | 285 | 6.4 | 11.3 | 0.00 | 0.00 | 0.00 | 61 | 1017.5 |
| 20260902162342 | 34 | 286 | 3.2 | 8.0 | 0.00 | 0.00 | 0.00 | 61 | 1017.5 |
| 20260902161837 | 35 | 350 | 0.0 | 3.2 | 0.00 | 0.00 | 0.00 | 64 | 1017.5 |
| 20260902161332 | 34 | 166 | 0.0 | 8.0 | 0.00 | 0.00 | 0.00 | 64 | 1017.5 |
| 20260902160828 | 34 | 275 | 3.2 | 4.8 | 0.00 | 0.00 | 0.00 | 65 | 1017.6 |
| 20260902160323 | 33 | 254 | 0.0 | 14.5 | 0.00 | 0.00 | 0.00 | 65 | 1017.7 |
| 20260902155821 | 34 | 198 | 0.0 | 4.8 | 0.00 | 0.00 | 0.00 | 66 | 1017.7 |
| 20260902155320 | 33 | 165 | 0.0 | 8.0 | 0.00 | 0.00 | 0.00 | 69 | 1017.7 |
| 20260902154816 | 33 | 291 | 4.8 | 8.0 | 0.00 | 0.00 | 0.00 | 66 | 1017.8 |
| 20260902154311 | 33 | 298 | 8.0 | 8.0 | 0.00 | 0.00 | 0.00 | 64 | 1017.9 |
| 20260902153810 | 33 | 279 | 1.6 | 6.4 | 0.00 | 0.00 | 0.00 | 67 | 1018.0 |
| 20260902153304 | 32 | 344 | 3.2 | 9.7 | 0.00 | 0.00 | 0.00 | 68 | 1018.0 |
| 20260902152800 | 32 | 184 | 6.4 | 8.0 | 0.00 | 0.00 | 0.00 | 68 | 1017.8 |
| 20260902152256 | 32 | 175 | 0.0 | 4.8 | 0.00 | 0.00 | 0.00 | 67 | 1018.0 |
| 20260902151756 | 32 | 291 | 8.0 | 11.3 | 0.00 | 0.00 | 0.00 | 68 | 1017.9 |
| 20260902151251 | 33 | 180 | 0.0 | 4.8 | 0.00 | 0.00 | 0.00 | 69 | 1017.7 |
| 20260902150746 | 33 | 180 | 0.0 | 3.2 | 0.00 | 0.00 | 0.00 | 70 | 1018.0 |
| 20260902150243 | 33 | 185 | 3.2 | 8.0 | 0.00 | 0.00 | 0.00 | 69 | 1018.1 |
| 20260902145741 | 33 | 176 | 3.2 | 3.2 | 0.00 | 0.00 | 0.00 | 68 | 1018.1 |
| 20260902145236 | 32 | 198 | 0.0 | 3.2 | 0.00 | 0.00 | 0.00 | 69 | 1017.9 |
| 20260902144732 | 32 | 270 | 0.0 | 6.4 | 0.00 | 0.00 | 0.00 | 71 | 1018.0 |
| 20260902144228 | 32 | 294 | 1.6 | 6.4 | 0.00 | 0.00 | 0.00 | 69 | 1017.8 |
| 20260902143717 | 31 | 289 | 0.0 | 9.7 | 0.00 | 0.00 | 0.00 | 70 | 1017.9 |
| 20260902143212 | 31 | 215 | 0.0 | 4.8 | 0.00 | 0.00 | 0.00 | 72 | 1018.0 |
| 20260902142708 | 31 | 225 | 3.2 | 4.8 | 0.00 | 0.00 | 0.00 | 72 | 1018.1 |
| 20260902142204 | 31 | 305 | 4.8 | 4.8 | 0.00 | 0.00 | 0.00 | 72 | 1017.8 |
| 20260902141704 | 31 | 260 | 4.8 | 4.8 | 0.00 | 0.00 | 0.00 | 73 | 1017.7 |
| 20260902141159 | 31 | 173 | 1.6 | 4.8 | 0.00 | 0.00 | 0.00 | 77 | 1017.9 |
| 20260902140654 | 30 | 270 | 1.6 | 6.4 | 0.00 | 0.00 | 0.00 | 75 | 1017.8 |
| 20260902140149 | 30 | 0 | 1.6 | 6.4 | 0.00 | 0.00 | 0.00 | 76 | 1017.8 |
| 20260902135648 | 31 | 200 | 0.0 | 3.2 | 0.00 | 0.00 | 0.00 | 76 | 1018.1 |
| 20260902135144 | 31 | 83 | 0.0 | 4.8 | 0.00 | 0.00 | 0.00 | 77 | 1017.8 |
| 20260902134639 | 30 | 234 | 0.0 | 6.4 | 0.00 | 0.00 | 0.00 | 77 | 1017.9 |
| 20260902134138 | 30 | 243 | 0.0 | 4.8 | 0.00 | 0.00 | 0.00 | 76 | 1017.9 |
| 20260902133633 | 31 | 200 | 0.0 | 3.2 | 0.00 | 0.00 | 0.00 | 74 | 1017.8 |
| 20260902133128 | 30 | 278 | 0.0 | 3.2 | 0.00 | 0.00 | 0.00 | 76 | 1017.9 |
| 20260902132623 | 29 | 243 | 0.0 | 4.8 | 0.00 | 0.00 | 0.00 | 80 | 1018.0 |
| 20260902132119 | 29 | 278 | 0.0 | 1.6 | 0.00 | 0.00 | 0.00 | 80 | 1017.9 |
| 20260902131615 | 29 | 289 | 0.0 | 4.8 | 0.00 | 0.00 | 0.00 | 80 | 1017.9 |
| 20260902131109 | 29 | 180 | 0.0 | 1.6 | 0.00 | 0.00 | 0.00 | 81 | 1017.9 |
| 20260902130606 | 28 | 97 | 0.0 | 3.2 | 0.00 | 0.00 | 0.00 | 80 | 1017.9 |
| 20260902125556 | 27 | 164 | 0.0 | 4.8 | 0.00 | 0.00 | 0.00 | 86 | 1017.8 |
| 20260902125051 | 26 | 281 | 3.2 | 4.8 | 0.00 | 0.00 | 0.00 | 87 | 1017.9 |
| 20260902124548 | 26 | 291 | 0.0 | 3.2 | 0.00 | 0.00 | 0.00 | 91 | 1017.9 |
| 20260902124048 | 25 | 90 | 0.0 | 3.2 | 0.00 | 0.00 | 0.00 | 99 | 1017.7 |
| 20260902123544 | 24 | 263 | 0.0 | 4.8 | 0.00 | 0.00 | 0.00 | 99 | 1017.7 |
| 20260902123043 | 25 | 23 | 0.0 | 0.0 | 0.00 | 0.00 | 0.00 | 99 | 1017.7 |
| 20260902122538 | 23 | 0 | 0.0 | 1.6 | 0.00 | 0.00 | 0.00 | 99 | 1017.7 |
| 20260902122034 | 23 | 8 | 0.0 | 0.0 | 0.00 | 0.00 | 0.00 | 99 | 1017.6 |
| 20260902121534 | 23 | 106 | 0.0 | 1.6 | 0.00 | 0.00 | 0.00 | 99 | 1017.5 |
| 20260902121029 | 22 | 0 | 0.0 | 1.6 | 0.00 | 0.00 | 0.00 | 99 | 1017.6 |
| 20260902120525 | 21 | 81 | 0.0 | 0.0 | 0.00 | 0.00 | 0.00 | 99 | 1017.6 |
| 20260902120021 | 21 | 14 | 0.0 | 0.0 | 0.00 | 0.00 | 0.00 | 99 | 1017.6 |
| 20260902115516 | 21 | 14 | 0.0 | 0.0 | 0.00 | 0.00 | 0.00 | 99 | 1017.7 |
| 20260902115013 | 21 | 14 | 0.0 | 0.0 | 0.00 | 0.00 | 0.00 | 99 | 1017.5 |
| 20260902114508 | 20 | 14 | 0.0 | 0.0 | 0.00 | 0.00 | 0.00 | 99 | 1017.5 |
| 20260902114008 | 20 | 14 | 0.0 | 0.0 | 0.00 | 0.00 | 0.00 | 99 | 1017.4 |
| 20260902113504 | 20 | 14 | 0.0 | 0.0 | 0.00 | 0.00 | 0.00 | 99 | 1017.3 |
| 20260902113004 | 20 | 14 | 0.0 | 0.0 | 0.00 | 0.00 | 0.00 | 99 | 1017.2 |
| 20260902112459 | 20 | 14 | 0.0 | 0.0 | 0.00 | 0.00 | 0.00 | 99 | 1017.2 |
| 20260902111955 | 20 | 0 | 0.0 | 0.0 | 0.00 | 0.00 | 0.00 | 99 | 1017.3 |
| 20260902111452 | 20 | 180 | 0.0 | 0.0 | 0.00 | 0.00 | 0.00 | 99 | 1017.2 |
| 20260902110947 | 20 | 188 | 0.0 | 0.0 | 0.00 | 0.00 | 0.00 | 99 | 1017.1 |
| 20260902110443 | 20 | 188 | 0.0 | 0.0 | 0.00 | 0.00 | 0.00 | 99 | 1017.1 |
| 20260902105938 | 20 | 188 | 0.0 | 0.0 | 0.00 | 0.00 | 0.00 | 99 | 1017.3 |
| 20260902105433 | 20 | 188 | 0.0 | 0.0 | 0.00 | 0.00 | 0.00 | 99 | 1017.2 |
| 20260902104927 | 20 | 188 | 0.0 | 0.0 | 0.00 | 0.00 | 0.00 | 99 | 1017.2 |
| 20260902104423 | 20 | 209 | 0.0 | 1.6 | 0.00 | 0.00 | 0.00 | 99 | 1017.2 |
| 20260902103922 | 20 | 173 | 0.0 | 0.0 | 0.00 | 0.00 | 0.00 | 99 | 1017.3 |
| 20260902103418 | 20 | 173 | 0.0 | 0.0 | 0.00 | 0.00 | 0.00 | 99 | 1017.2 |
| 20260902102913 | 20 | 173 | 0.0 | 0.0 | 0.00 | 0.00 | 0.00 | 99 | 1017.1 |
| 20260902102410 | 20 | 173 | 0.0 | 0.0 | 0.00 | 0.00 | 0.00 | 99 | 1017.0 |
| 20260902101906 | 20 | 173 | 0.0 | 0.0 | 0.00 | 0.00 | 0.00 | 99 | 1017.1 |
| 20260902101401 | 20 | 173 | 0.0 | 0.0 | 0.00 | 0.00 | 0.00 | 99 | 1017.3 |
| 20260902100900 | 20 | 187 | 0.0 | 0.0 | 0.00 | 0.00 | 0.00 | 99 | 1017.2 |
| 20260902100354 | 20 | 180 | 0.0 | 0.0 | 0.00 | 0.00 | 0.00 | 99 | 1017.1 |
| 20260902095849 | 20 | 180 | 0.0 | 0.0 | 0.00 | 0.00 | 0.00 | 99 | 1017.2 |
| 20260902095349 | 20 | 180 | 0.0 | 0.0 | 0.00 | 0.00 | 0.00 | 99 | 1017.0 |
| 20260902094843 | 20 | 180 | 0.0 | 0.0 | 0.00 | 0.00 | 0.00 | 99 | 1017.1 |
| 20260902094340 | 20 | 180 | 0.0 | 0.0 | 0.00 | 0.00 | 0.00 | 99 | 1017.0 |
| 20260902093838 | 20 | 180 | 0.0 | 0.0 | 0.00 | 0.00 | 0.00 | 99 | 1017.1 |
| 20260902093334 | 20 | 180 | 0.0 | 0.0 | 0.00 | 0.00 | 0.00 | 99 | 1017.1 |
| 20260902092833 | 21 | 180 | 0.0 | 0.0 | 0.00 | 0.00 | 0.00 | 99 | 1017.0 |
| 20260902092329 | 20 | 195 | 0.0 | 0.0 | 0.00 | 0.00 | 0.00 | 99 | 1017.1 |
| 20260902091829 | 20 | 195 | 0.0 | 0.0 | 0.00 | 0.00 | 0.00 | 99 | 1017.1 |
| 20260902091324 | 21 | 195 | 0.0 | 1.6 | 0.00 | 0.00 | 0.00 | 99 | 1016.9 |
| 20260902090821 | 21 | 180 | 0.0 | 0.0 | 0.00 | 0.00 | 0.00 | 99 | 1017.0 |
| 20260902090320 | 21 | 0 | 0.0 | 0.0 | 0.00 | 0.00 | 0.00 | 99 | 1016.8 |
| 20260902085819 | 21 | 0 | 0.0 | 0.0 | 0.00 | 0.00 | 0.00 | 99 | 1016.7 |
| 20260902085315 | 20 | 0 | 0.0 | 0.0 | 0.00 | 0.00 | 0.00 | 99 | 1016.8 |
| 20260902084810 | 21 | 0 | 0.0 | 0.0 | 0.00 | 0.00 | 0.00 | 99 | 1016.9 |
| 20260902084307 | 21 | 0 | 0.0 | 0.0 | 0.00 | 0.00 | 0.00 | 99 | 1016.4 |
| 20260902083801 | 21 | 0 | 0.0 | 0.0 | 0.00 | 0.00 | 0.00 | 99 | 1016.7 |
| 20260902083256 | 21 | 0 | 0.0 | 0.0 | 0.00 | 0.00 | 0.00 | 99 | 1016.4 |
| 20260902082751 | 21 | 0 | 0.0 | 0.0 | 0.00 | 0.00 | 0.00 | 99 | 1016.3 |
| 20260902082247 | 21 | 0 | 0.0 | 0.0 | 0.00 | 0.00 | 0.00 | 99 | 1016.5 |
| 20260902081743 | 21 | 0 | 0.0 | 0.0 | 0.00 | 0.00 | 0.00 | 99 | 1016.4 |
| 20260902081239 | 21 | 0 | 0.0 | 0.0 | 0.00 | 0.00 | 0.00 | 99 | 1016.4 |
| 20260902080734 | 21 | 0 | 0.0 | 0.0 | 0.00 | 0.00 | 0.00 | 99 | 1016.2 |
| 20260902080231 | 21 | 0 | 0.0 | 0.0 | 0.00 | 0.00 | 0.00 | 99 | 1016.2 |
| 20260902075730 | 21 | 0 | 0.0 | 0.0 | 0.00 | 0.00 | 0.00 | 99 | 1016.3 |
| 20260902075226 | 21 | 0 | 0.0 | 0.0 | 0.00 | 0.00 | 0.00 | 99 | 1016.2 |
| 20260902074726 | 21 | 0 | 0.0 | 0.0 | 0.00 | 0.00 | 0.00 | 99 | 1016.2 |
| 20260902074221 | 21 | 0 | 0.0 | 0.0 | 0.00 | 0.00 | 0.00 | 99 | 1016.4 |
| 20260902073717 | 21 | 0 | 0.0 | 0.0 | 0.00 | 0.00 | 0.00 | 99 | 1016.3 |
| 20260902073213 | 21 | 0 | 0.0 | 0.0 | 0.00 | 0.00 | 0.00 | 99 | 1016.4 |
| 20260902072709 | 21 | 0 | 0.0 | 0.0 | 0.00 | 0.00 | 0.00 | 99 | 1016.1 |
| 20260902072205 | 21 | 165 | 0.0 | 0.0 | 0.00 | 0.00 | 0.00 | 99 | 1016.3 |
| 20260902071701 | 21 | 165 | 0.0 | 0.0 | 0.00 | 0.00 | 0.00 | 99 | 1016.2 |
| 20260902071155 | 21 | 172 | 0.0 | 0.0 | 0.00 | 0.00 | 0.00 | 99 | 1016.3 |
| 20260902070652 | 21 | 172 | 0.0 | 0.0 | 0.00 | 0.00 | 0.00 | 99 | 1016.2 |
| 20260902070151 | 22 | 172 | 0.0 | 1.6 | 0.00 | 0.00 | 0.00 | 99 | 1016.3 |
| 20260902065650 | 21 | 180 | 0.0 | 0.0 | 0.00 | 0.00 | 0.00 | 99 | 1016.0 |
| 20260902065146 | 22 | 180 | 0.0 | 0.0 | 0.00 | 0.00 | 0.00 | 99 | 1016.3 |
| 20260902064641 | 22 | 180 | 0.0 | 1.6 | 0.00 | 0.00 | 0.00 | 99 | 1016.2 |
| 20260902064136 | 21 | 262 | 0.0 | 0.0 | 0.00 | 0.00 | 0.00 | 99 | 1016.2 |
| 20260902063632 | 21 | 262 | 0.0 | 0.0 | 0.00 | 0.00 | 0.00 | 99 | 1016.3 |
| 20260902063127 | 22 | 262 | 0.0 | 0.0 | 0.00 | 0.00 | 0.00 | 99 | 1016.4 |
| 20260902062625 | 21 | 262 | 0.0 | 0.0 | 0.00 | 0.00 | 0.00 | 99 | 1016.2 |
| 20260902062121 | 21 | 262 | 0.0 | 0.0 | 0.00 | 0.00 | 0.00 | 99 | 1016.3 |
| 20260902061620 | 21 | 0 | 0.0 | 0.0 | 0.00 | 0.00 | 0.00 | 99 | 1016.2 |
| 20260902061116 | 21 | 0 | 0.0 | 0.0 | 0.00 | 0.00 | 0.00 | 99 | 1015.9 |
| 20260902060613 | 22 | 0 | 0.0 | 0.0 | 0.00 | 0.00 | 0.00 | 99 | 1016.1 |
| 20260902060109 | 21 | 0 | 0.0 | 0.0 | 0.00 | 0.00 | 0.00 | 99 | 1016.1 |
| 20260902055604 | 22 | 0 | 0.0 | 0.0 | 0.00 | 0.00 | 0.00 | 99 | 1016.2 |
| 20260902055059 | 22 | 0 | 0.0 | 0.0 | 0.00 | 0.00 | 0.00 | 99 | 1016.3 |
| 20260902054554 | 22 | 0 | 0.0 | 0.0 | 0.00 | 0.00 | 0.00 | 99 | 1016.2 |
| 20260902054050 | 22 | 0 | 0.0 | 0.0 | 0.00 | 0.00 | 0.00 | 99 | 1016.2 |
| 20260902053544 | 22 | 0 | 0.0 | 0.0 | 0.00 | 0.00 | 0.00 | 99 | 1016.3 |
| 20260902053039 | 22 | 0 | 0.0 | 0.0 | 0.00 | 0.00 | 0.00 | 99 | 1016.2 |
| 20260902052533 | 22 | 354 | 0.0 | 1.6 | 0.00 | 0.00 | 0.00 | 99 | 1016.1 |
| 20260902052029 | 22 | 180 | 0.0 | 0.0 | 0.00 | 0.00 | 0.00 | 99 | 1016.2 |
| 20260902051529 | 22 | 180 | 0.0 | 0.0 | 0.00 | 0.00 | 0.00 | 99 | 1016.4 |
| 20260902051027 | 22 | 180 | 0.0 | 0.0 | 0.00 | 0.00 | 0.00 | 99 | 1016.2 |
| 20260902050522 | 22 | 0 | 0.0 | 0.0 | 0.00 | 0.00 | 0.00 | 99 | 1016.3 |
| 20260902050018 | 22 | 0 | 0.0 | 0.0 | 0.00 | 0.00 | 0.00 | 99 | 1016.2 |
| 20260902045513 | 22 | 0 | 0.0 | 0.0 | 0.00 | 0.00 | 0.00 | 99 | 1016.3 |
| 20260902045010 | 23 | 60 | 0.0 | 0.0 | 0.00 | 0.00 | 0.00 | 99 | 1016.2 |
| 20260902044504 | 23 | 160 | 0.0 | 0.0 | 0.00 | 0.00 | 0.00 | 99 | 1016.1 |
| 20260902044000 | 23 | 160 | 0.0 | 0.0 | 0.00 | 0.00 | 0.00 | 99 | 1016.3 |
| 20260902043454 | 23 | 160 | 0.0 | 0.0 | 0.00 | 0.00 | 0.00 | 98 | 1016.2 |
| 20260902042950 | 23 | 160 | 0.0 | 0.0 | 0.00 | 0.00 | 0.00 | 98 | 1016.2 |
| 20260902042449 | 23 | 160 | 0.0 | 0.0 | 0.00 | 0.00 | 0.00 | 98 | 1016.1 |
| 20260902041944 | 23 | 160 | 0.0 | 0.0 | 0.00 | 0.00 | 0.00 | 97 | 1016.3 |
| 20260902041439 | 23 | 160 | 0.0 | 0.0 | 0.00 | 0.00 | 0.00 | 97 | 1016.3 |
| 20260902040939 | 23 | 160 | 0.0 | 0.0 | 0.00 | 0.00 | 0.00 | 97 | 1016.1 |
| 20260902040433 | 23 | 148 | 0.0 | 0.0 | 0.00 | 0.00 | 0.00 | 97 | 1016.5 |
| 20260902035932 | 23 | 157 | 0.0 | 0.0 | 0.00 | 0.00 | 0.00 | 96 | 1016.4 |
| 20260902035427 | 24 | 157 | 0.0 | 0.0 | 0.00 | 0.00 | 0.00 | 96 | 1016.1 |
| 20260902034927 | 24 | 157 | 0.0 | 0.0 | 0.00 | 0.00 | 0.00 | 96 | 1016.4 |
| 20260902034422 | 24 | 180 | 0.0 | 0.0 | 0.00 | 0.00 | 0.00 | 95 | 1016.3 |
| 20260902033921 | 24 | 180 | 0.0 | 1.6 | 0.00 | 0.00 | 0.00 | 95 | 1016.3 |
| 20260902033415 | 24 | 180 | 0.0 | 1.6 | 0.00 | 0.00 | 0.00 | 95 | 1016.2 |
| 20260902032914 | 24 | 180 | 0.0 | 0.0 | 0.00 | 0.00 | 0.00 | 95 | 1016.2 |
| 20260902032408 | 24 | 180 | 0.0 | 0.0 | 0.00 | 0.00 | 0.00 | 94 | 1016.3 |
| 20260902031903 | 25 | 180 | 0.0 | 1.6 | 0.00 | 0.00 | 0.00 | 93 | 1016.1 |
| 20260902031359 | 25 | 157 | 0.0 | 0.0 | 0.00 | 0.00 | 0.00 | 93 | 1016.2 |
| 20260902030855 | 25 | 157 | 0.0 | 0.0 | 0.00 | 0.00 | 0.00 | 92 | 1016.2 |
| 20260902030349 | 25 | 157 | 0.0 | 0.0 | 0.00 | 0.00 | 0.00 | 91 | 1016.2 |
| 20260902025847 | 26 | 151 | 1.6 | 1.6 | 0.00 | 0.00 | 0.00 | 89 | 1016.5 |
| 20260902025344 | 26 | 255 | 0.0 | 0.0 | 0.00 | 0.00 | 0.00 | 86 | 1016.4 |
| 20260902024838 | 26 | 255 | 0.0 | 1.6 | 0.00 | 0.00 | 0.00 | 86 | 1016.2 |
| 20260902024334 | 26 | 203 | 0.0 | 3.2 | 0.00 | 0.00 | 0.00 | 85 | 1016.3 |
| 20260902023829 | 26 | 209 | 0.0 | 3.2 | 0.00 | 0.00 | 0.00 | 86 | 1016.4 |
| 20260902023324 | 26 | 161 | 3.2 | 3.2 | 0.00 | 0.00 | 0.00 | 85 | 1016.2 |
| 20260902022823 | 26 | 178 | 4.8 | 4.8 | 0.00 | 0.00 | 0.00 | 85 | 1016.1 |
| 20260902022319 | 26 | 237 | 0.0 | 4.8 | 0.00 | 0.00 | 0.00 | 85 | 1016.1 |
| 20260902021815 | 26 | 188 | 0.0 | 3.2 | 0.00 | 0.00 | 0.00 | 87 | 1016.0 |
| 20260902021309 | 26 | 172 | 3.2 | 4.8 | 0.00 | 0.00 | 0.00 | 87 | 1016.1 |
| 20260902020805 | 26 | 195 | 1.6 | 6.4 | 0.00 | 0.00 | 0.00 | 87 | 1016.2 |
| 20260902020301 | 26 | 206 | 0.0 | 3.2 | 0.00 | 0.00 | 0.00 | 88 | 1016.1 |
| 20260902015756 | 26 | 157 | 0.0 | 4.8 | 0.00 | 0.00 | 0.00 | 87 | 1016.2 |
| 20260902015252 | 26 | 192 | 1.6 | 1.6 | 0.00 | 0.00 | 0.00 | 88 | 1016.1 |
| 20260902014748 | 26 | 206 | 0.0 | 3.2 | 0.00 | 0.00 | 0.00 | 89 | 1016.2 |
| 20260902014244 | 26 | 203 | 0.0 | 4.8 | 0.00 | 0.00 | 0.00 | 89 | 1016.3 |
| 20260902013742 | 26 | 188 | 0.0 | 1.6 | 0.00 | 0.00 | 0.00 | 89 | 1016.2 |
| 20260902013238 | 26 | 199 | 0.0 | 3.2 | 0.00 | 0.00 | 0.00 | 89 | 1016.1 |
| 20260902012733 | 26 | 195 | 1.6 | 1.6 | 0.00 | 0.00 | 0.00 | 89 | 1016.0 |
| 20260902012229 | 26 | 180 | 0.0 | 3.2 | 0.00 | 0.00 | 0.00 | 89 | 1016.2 |
| 20260902011724 | 26 | 157 | 0.0 | 0.0 | 0.00 | 0.00 | 0.00 | 89 | 1015.8 |